Location: Delta State University
(33.7460°N, 90.7320°W)
Time: 06:10:27
(UTC-05:00)

Iridium 13 - Visible Passes

Search period start: 24 May 2015 00:00
Search period end: 03 June 2015 00:00
Orbit: 776 x 779 km, 86.4° (Epoch: 23 May)

Date Brightness Start Highest point End Pass type
(mag) Time Alt. Az. Time Alt. Az. Time Alt. Az.
24 May 6.4 05:01:13 10° SSE 05:06:15 53° E 05:11:19 10° NNE visible
25 May 7.6 04:28:36 10° SE 04:32:51 27° E 04:37:15 10° NNE visible
26 May 8.3 03:57:05 10° ESE 03:59:32 14° E 04:02:17 10° NE visible
27 May 5.7 05:01:07 10° S 05:06:19 80° E 05:11:32 10° N visible
28 May 6.8 04:28:03 10° SSE 04:32:52 40° E 04:37:44 10° NNE visible
29 May 7.8 03:55:46 10° SE 03:59:30 21° E 04:03:25 10° NE visible
30 May 8.5 03:25:36 10° E 03:26:12 10° E 03:27:12 10° ENE visible
30 May 5.5 05:01:14 10° S 05:06:24 69° W 05:11:36 10° N visible
31 May 6.0 04:27:48 10° SSE 04:32:54 61° E 04:38:03 10° N visible
01 Jun 7.2 03:55:01 10° SE 03:59:30 31° E 04:04:04 10° NNE visible
02 Jun 8.1 03:23:10 10° ESE 03:26:09 16° E 03:29:24 10° NE visible
02 Jun 5.9 05:01:34 10° SSW 05:06:32 45° W 05:11:32 10° NNW visible
